Location: Unspecified
(41.1637°N, 24.2901°E)
Time: 01:52:46
(UTC+01:00)

ISS - Pass Details

Date: 11 November 2025
Orbit: 414 x 420 km, 51.6° (Epoch: 18 November)

Event Time Altitude Azimuth Distance (km) Brightness Sun altitude
Rises 18:10:26 0° 223° (SW) 2,338 0.7 -23.3°
Reaches altitude 10° 18:12:32 10° 219° (SW) 1,479 -0.5 -23.7°
Enters shadow 18:14:02 24° 210° (SSW) 900 -1.8 -24.0°
